AKDT,Max TemperatureF,Mean TemperatureF,Min TemperatureF,Max Dew PointF,MeanDew PointF,Min DewpointF,Max Humidity, Mean Humidity, Min Humidity, Max Sea Level PressureIn, Mean Sea Level PressureIn, Min Sea Level PressureIn, Max VisibilityMiles, Mean VisibilityMiles, Min VisibilityMiles, Max Wind SpeedMPH, Mean Wind SpeedMPH, Max Gust SpeedMPH,PrecipitationIn, CloudCover, Events, WindDirDegrees
2013-4-1,37,28,19,27,23,18,92,79,54,30.12,30.03,29.99,10,10,10,8,2,,0.00,3,,243
2013-4-2,39,27,15,26,21,14,100,77,47,30.16,30.11,30.04,10,8,0,9,2,,0.00,3,Fog,6
2013-4-3,39,30,21,26,23,17,85,72,57,30.23,30.20,30.17,10,10,10,16,4,,0.00,3,,7
2013-4-4,37,29,21,23,19,14,89,65,44,30.20,30.01,29.78,10,10,10,18,9,23,0.00,0,,23
2013-4-5,33,21,10,14,11,8,92,59,38,29.77,29.61,29.50,10,10,10,9,5,,0.00,1,,13
2013-4-6,32,24,16,18,13,8,81,65,48,29.53,29.49,29.46,10,10,3,12,5,,0.00,4,Snow,24
2013-4-7,24,18,10,14,9,2,74,62,46,29.80,29.69,29.54,10,10,3,21,13,28,0.00,1,Snow,194
2013-4-8,25,14,3,8,5,0,88,64,42,29.80,29.59,29.31,10,10,10,9,4,,0.00,2,,355
2013-4-9,23,12,1,8,4,-2,85,64,48,29.48,29.22,29.10,10,10,7,12,3,,0.00,4,Snow,302
2013-4-10,19,14,9,12,7,1,88,71,48,29.96,29.75,29.52,10,7,1,14,6,25,0.00,6,Snow,170
2013-4-11,21,10,0,10,4,-3,88,69,51,30.14,30.06,29.96,10,10,9,14,6,,0.00,2,,11
2013-4-12,28,17,6,11,3,-3,73,52,36,30.16,30.12,30.10,10,10,10,16,7,21,0.00,0,,346
2013-4-13,32,20,10,16,7,2,72,53,37,30.43,30.30,30.17,10,10,10,13,7,,0.00,0,,350
2013-4-14,37,22,7,18,12,3,84,60,34,30.54,30.49,30.44,10,10,6,8,2,,0.00,0,,275
2013-4-15,37,24,12,22,15,6,82,65,48,30.44,30.37,30.32,10,10,10,15,5,,0.00,1,,4
2013-4-16,34,26,18,15,12,10,74,58,40,30.31,30.20,30.13,10,10,10,12,8,,0.00,0,,3
2013-4-17,30,22,15,20,12,8,89,61,45,30.18,30.16,30.12,10,10,10,9,4,,0.00,0,,291
2013-4-18,37,26,15,19,14,10,84,61,39,30.21,30.18,30.14,10,10,10,10,5,,0.00,0,,2
2013-4-19,41,30,21,21,16,13,72,56,39,30.34,30.27,30.17,10,10,10,16,8,,0.00,0,,14
2013-4-20,41,28,14,24,18,12,92,64,36,30.43,30.40,30.35,10,10,7,7,2,,0.00,0,,280
2013-4-21,37,28,19,34,27,16,100,85,67,30.40,30.36,30.34,10,9,3,17,7,21,0.01,5,Rain-Snow,24
2013-4-22,43,34,25,28,26,21,96,71,42,30.51,30.47,30.40,10,10,10,13,6,,0.00,0,,13
2013-4-23,37,34,32,36,33,28,100,96,76,30.48,30.42,30.36,10,8,2,16,7,,0.35,8,Rain-Snow,22
2013-4-24,37,34,30,34,33,30,100,97,86,30.36,30.16,29.88,10,7,0,12,2,,0.00,7,Fog,203
2013-4-25,39,36,30,27,17,10,75,48,36,29.87,29.79,29.73,10,10,10,30,21,40,0.00,0,,4
2013-4-26,37,30,23,23,14,8,72,50,34,29.80,29.65,29.51,10,10,10,16,10,24,0.00,2,,330
2013-4-27,39,34,28,21,18,12,67,52,39,29.94,29.74,29.55,10,10,10,26,12,32,0.00,2,,3
2013-4-28,41,32,25,23,15,10,72,49,37,30.17,30.07,29.96,10,10,10,17,9,21,0.00,0,,355
2013-4-29,41,30,21,24,20,17,92,66,41,30.19,30.17,30.11,10,10,10,6,2,,0.00,1,,231
2013-4-30,39,32,26,34,27,21,100,76,60,30.10,29.96,29.81,10,9,2,8,5,,0.02,7,Snow,171